This is the latest recevied weather packets stored in our database for station/object N7BTW-13. If no packets are shown the sender has not sent any weather packets the latest 10 day(s).
| Time | Temp. | Humidity | Pressure | Rain* | Wind** | Luminosity | Snow |
|---|---|---|---|---|---|---|---|
| 1778189409 | 22.22° C | 50% | 1019.2 hPa | 0 mm | - | - | - |
| 1778188809 | 22.22° C | 53% | 1019.3 hPa | 0 mm | - | - | - |
| 1778188209 | 21.11° C | 53% | 1019.3 hPa | 0 mm | - | - | - |
| 1778187606 | 21.11° C | 52% | 1019.5 hPa | 0 mm | - | - | - |
| 1778187007 | 20° C | 52% | 1019.7 hPa | 0 mm | - | - | - |
| 1778186408 | 20.56° C | 55% | 1019.8 hPa | 0 mm | - | - | - |
| 1778185807 | 20.56° C | 56% | 1019.9 hPa | 0 mm | - | - | - |
| 1778185208 | 20° C | 53% | 1020.1 hPa | 0 mm | - | - | - |
| 1778184608 | 19.44° C | 54% | 1020.2 hPa | 0 mm | - | - | - |
| 1778184010 | 18.89° C | 55% | 1020.4 hPa | 0 mm | - | - | - |
| 1778183408 | 19.44° C | 59% | 1020.4 hPa | 0 mm | - | - | - |
| 1778182809 | 18.33° C | 58% | 1020.5 hPa | 0 mm | - | - | - |
| 1778182207 | 18.33° C | 60% | 1020.5 hPa | 0 mm | - | - | - |
| 1778181606 | 18.33° C | 61% | 1020.8 hPa | 0 mm | - | - | - |
| 1778181008 | 17.78° C | 63% | 1020.8 hPa | 0 mm | - | - | - |
| 1778180408 | 17.78° C | 61% | 1020.9 hPa | 0 mm | - | - | - |
| 1778179810 | 16.67° C | 64% | 1021 hPa | 0 mm | - | - | - |
| 1778179207 | 17.22° C | 66% | 1021.1 hPa | 0 mm | - | - | - |
| 1778178608 | 17.22° C | 67% | 1021.1 hPa | 0 mm | - | - | - |
| 1778178009 | 15° C | 70% | 1021.2 hPa | 0 mm | - | - | - |
| 1778177406 | 16.67° C | 68% | 1021.3 hPa | 0 mm | - | - | - |
| 1778176807 | 16.11° C | 67% | 1021.5 hPa | 0 mm | - | - | - |
| 1778176207 | 16.11° C | 67% | 1021.5 hPa | 0 mm | - | - | - |
| 1778175608 | 16.11° C | 67% | 1021.6 hPa | 0 mm | - | - | - |
| 1778175009 | 16.11° C | 67% | 1021.7 hPa | 0 mm | - | - | - |
* Rain latest hour (hover to see other rain measurements)
** Current wind speed in m/s (hover to see current wind gust speed)